| time (UTC) | temp F | wind direction | speed MPH | gust MPH | rain 1hr in | rain 24hr in | rain mn in | humidity % | barometer mb |
| 20260505010038 | 66 | 60 | 0.0 | 0.0 | 0.00 | 0.00 | 0.00 | 69 | 1014.1 |
| 20260505005534 | 67 | 83 | 0.0 | 0.0 | 0.00 | 0.00 | 0.00 | 68 | 1014.3 |
| 20260505005032 | 68 | 78 | 0.0 | 0.0 | 0.00 | 0.00 | 0.00 | 68 | 1014.2 |
| 20260505004529 | 68 | 76 | 0.0 | 0.0 | 0.00 | 0.00 | 0.00 | 64 | 1014.4 |
| 20260505004026 | 68 | 151 | 2.0 | 2.0 | 0.00 | 0.00 | 0.00 | 62 | 1014.5 |
| 20260505003523 | 69 | 69 | 0.0 | 0.0 | 0.00 | 0.00 | 0.00 | 63 | 1014.4 |
| 20260505003020 | 69 | 146 | 1.0 | 1.0 | 0.00 | 0.00 | 0.00 | 61 | 1014.3 |
| 20260505002515 | 69 | 112 | 0.0 | 0.0 | 0.00 | 0.00 | 0.00 | 60 | 1014.4 |
| 20260505002014 | 70 | 147 | 0.0 | 0.0 | 0.00 | 0.00 | 0.00 | 60 | 1014.5 |
| 20260505001511 | 70 | 52 | 0.0 | 0.0 | 0.00 | 0.00 | 0.00 | 60 | 1014.5 |
| 20260505001008 | 71 | 113 | 0.0 | 0.0 | 0.00 | 0.00 | 0.00 | 58 | 1014.6 |
| 20260505000506 | 71 | 120 | 0.0 | 0.0 | 0.00 | 0.00 | 0.00 | 57 | 1014.6 |
| 20260505000003 | 71 | 121 | 3.0 | 3.0 | 0.00 | 0.00 | 0.00 | 56 | 1014.4 |
| 20260504235500 | 72 | 95 | 0.0 | 0.0 | 0.00 | 0.00 | 0.00 | 55 | 1014.4 |
| 20260504234956 | 73 | 188 | 1.0 | 2.0 | 0.00 | 0.00 | 0.00 | 54 | 1014.5 |
| 20260504234453 | 73 | 145 | 1.0 | 2.0 | 0.00 | 0.00 | 0.00 | 54 | 1014.6 |
| 20260504233950 | 73 | 121 | 1.0 | 1.0 | 0.00 | 0.00 | 0.00 | 53 | 1014.7 |
| 20260504233445 | 74 | 153 | 2.0 | 2.0 | 0.00 | 0.00 | 0.00 | 55 | 1014.7 |
| 20260504232943 | 74 | 161 | 1.0 | 2.0 | 0.00 | 0.00 | 0.00 | 53 | 1014.6 |
| 20260504232440 | 74 | 175 | 3.0 | 4.0 | 0.00 | 0.00 | 0.00 | 51 | 1014.6 |
| 20260504231937 | 74 | 219 | 4.0 | 6.0 | 0.00 | 0.00 | 0.00 | 51 | 1014.7 |
| 20260504231433 | 74 | 148 | 3.0 | 3.0 | 0.00 | 0.00 | 0.00 | 51 | 1014.8 |
| 20260504230929 | 74 | 310 | 0.0 | 1.0 | 0.00 | 0.00 | 0.00 | 51 | 1014.9 |
| 20260504230426 | 75 | 164 | 1.0 | 2.0 | 0.00 | 0.00 | 0.00 | 50 | 1014.8 |
| 20260504225926 | 74 | 137 | 1.0 | 1.0 | 0.00 | 0.00 | 0.00 | 51 | 1014.9 |
| 20260504225422 | 75 | 125 | 2.0 | 3.0 | 0.00 | 0.00 | 0.00 | 50 | 1015.1 |
| 20260504224919 | 76 | 185 | 4.0 | 6.0 | 0.00 | 0.00 | 0.00 | 50 | 1014.9 |
| 20260504224415 | 76 | 103 | 1.0 | 1.0 | 0.00 | 0.00 | 0.00 | 48 | 1015.0 |
| 20260504223913 | 76 | 180 | 3.0 | 3.0 | 0.00 | 0.00 | 0.00 | 49 | 1015.0 |
| 20260504223408 | 76 | 183 | 2.0 | 2.0 | 0.00 | 0.00 | 0.00 | 50 | 1015.1 |
| 20260504222904 | 75 | 42 | 0.0 | 0.0 | 0.00 | 0.00 | 0.00 | 50 | 1015.0 |
| 20260504222401 | 75 | 241 | 5.0 | 7.0 | 0.00 | 0.00 | 0.00 | 50 | 1015.1 |
| 20260504221900 | 77 | 106 | 2.0 | 4.0 | 0.00 | 0.00 | 0.00 | 49 | 1015.3 |
| 20260504221356 | 76 | 271 | 3.0 | 3.0 | 0.00 | 0.00 | 0.00 | 49 | 1015.1 |
| 20260504220854 | 76 | 205 | 1.0 | 1.0 | 0.00 | 0.00 | 0.00 | 53 | 1015.3 |
| 20260504220350 | 76 | 180 | 6.0 | 7.0 | 0.00 | 0.00 | 0.00 | 49 | 1015.2 |
| 20260504215847 | 76 | 114 | 2.0 | 3.0 | 0.00 | 0.00 | 0.00 | 51 | 1015.4 |
| 20260504215344 | 77 | 169 | 6.0 | 7.0 | 0.00 | 0.00 | 0.00 | 49 | 1015.5 |
| 20260504214840 | 77 | 118 | 2.0 | 2.0 | 0.00 | 0.00 | 0.00 | 52 | 1015.2 |
| 20260504214337 | 77 | 259 | 1.0 | 1.0 | 0.00 | 0.00 | 0.00 | 49 | 1015.3 |
| 20260504213833 | 77 | 138 | 1.0 | 2.0 | 0.00 | 0.00 | 0.00 | 49 | 1015.3 |
| 20260504213329 | 76 | 263 | 2.0 | 3.0 | 0.00 | 0.00 | 0.00 | 47 | 1015.5 |
| 20260504212827 | 77 | 149 | 2.0 | 2.0 | 0.00 | 0.00 | 0.00 | 49 | 1015.5 |
| 20260504212323 | 77 | 182 | 1.0 | 1.0 | 0.00 | 0.00 | 0.00 | 51 | 1015.5 |
| 20260504211821 | 77 | 203 | 2.0 | 4.0 | 0.00 | 0.00 | 0.00 | 49 | 1015.5 |
| 20260504211316 | 76 | 156 | 4.0 | 4.0 | 0.00 | 0.00 | 0.00 | 48 | 1015.6 |
| 20260504210814 | 77 | 272 | 2.0 | 2.0 | 0.00 | 0.00 | 0.00 | 49 | 1015.7 |
| 20260504210311 | 76 | 127 | 6.0 | 7.0 | 0.00 | 0.00 | 0.00 | 48 | 1015.6 |
| 20260504205809 | 77 | 214 | 3.0 | 4.0 | 0.00 | 0.00 | 0.00 | 49 | 1015.4 |
| 20260504205306 | 76 | 154 | 3.0 | 3.0 | 0.00 | 0.00 | 0.00 | 50 | 1015.7 |
| 20260504204804 | 76 | 230 | 4.0 | 4.0 | 0.00 | 0.00 | 0.00 | 50 | 1015.6 |
| 20260504204302 | 77 | 125 | 6.0 | 7.0 | 0.00 | 0.00 | 0.00 | 48 | 1015.8 |
| 20260504203801 | 77 | 183 | 3.0 | 4.0 | 0.00 | 0.00 | 0.00 | 47 | 1015.9 |
| 20260504203258 | 77 | 112 | 3.0 | 6.0 | 0.00 | 0.00 | 0.00 | 47 | 1015.7 |
| 20260504202758 | 77 | 171 | 4.0 | 7.0 | 0.00 | 0.00 | 0.00 | 48 | 1015.8 |
| 20260504202256 | 77 | 203 | 4.0 | 4.0 | 0.00 | 0.00 | 0.00 | 46 | 1016.1 |
| 20260504201752 | 77 | 215 | 6.0 | 8.0 | 0.00 | 0.00 | 0.00 | 49 | 1016.0 |
| 20260504201250 | 77 | 201 | 3.0 | 6.0 | 0.00 | 0.00 | 0.00 | 51 | 1016.2 |
| 20260504200748 | 77 | 226 | 1.0 | 2.0 | 0.00 | 0.00 | 0.00 | 46 | 1016.1 |
| 20260504200243 | 77 | 212 | 5.0 | 6.0 | 0.00 | 0.00 | 0.00 | 49 | 1016.4 |
| 20260504195740 | 76 | 237 | 3.0 | 3.0 | 0.00 | 0.00 | 0.00 | 46 | 1016.3 |
| 20260504195236 | 76 | 194 | 3.0 | 4.0 | 0.00 | 0.00 | 0.00 | 47 | 1016.5 |
| 20260504194733 | 76 | 223 | 3.0 | 4.0 | 0.00 | 0.00 | 0.00 | 47 | 1016.9 |
| 20260504194229 | 77 | 179 | 4.0 | 6.0 | 0.00 | 0.00 | 0.00 | 49 | 1016.7 |
| 20260504193726 | 77 | 265 | 4.0 | 6.0 | 0.00 | 0.00 | 0.00 | 46 | 1016.8 |
| 20260504193223 | 78 | 197 | 3.0 | 4.0 | 0.00 | 0.00 | 0.00 | 48 | 1017.1 |
| 20260504192721 | 76 | 159 | 2.0 | 3.0 | 0.00 | 0.00 | 0.00 | 50 | 1017.2 |
| 20260504192219 | 77 | 158 | 6.0 | 8.0 | 0.00 | 0.00 | 0.00 | 47 | 1017.3 |
| 20260504191718 | 77 | 181 | 4.0 | 6.0 | 0.00 | 0.00 | 0.00 | 46 | 1017.3 |
| 20260504191214 | 77 | 204 | 6.0 | 7.0 | 0.00 | 0.00 | 0.00 | 47 | 1017.2 |
| 20260504190709 | 76 | 227 | 1.0 | 2.0 | 0.00 | 0.00 | 0.00 | 47 | 1017.2 |
| 20260504190206 | 77 | 172 | 2.0 | 3.0 | 0.00 | 0.00 | 0.00 | 44 | 1017.2 |
| 20260504185703 | 76 | 334 | 8.0 | 13.0 | 0.00 | 0.00 | 0.00 | 47 | 1017.3 |
| 20260504185159 | 76 | 166 | 2.0 | 3.0 | 0.00 | 0.00 | 0.00 | 47 | 1017.2 |
| 20260504184655 | 76 | 105 | 2.0 | 3.0 | 0.00 | 0.00 | 0.00 | 47 | 1017.6 |
| 20260504184150 | 77 | 154 | 3.0 | 4.0 | 0.00 | 0.00 | 0.00 | 41 | 1017.5 |
| 20260504183647 | 76 | 103 | 2.0 | 2.0 | 0.00 | 0.00 | 0.00 | 44 | 1017.6 |
| 20260504183145 | 75 | 136 | 3.0 | 4.0 | 0.00 | 0.00 | 0.00 | 46 | 1017.6 |
| 20260504182643 | 75 | 13 | 1.0 | 2.0 | 0.00 | 0.00 | 0.00 | 45 | 1017.8 |
| 20260504182140 | 76 | 152 | 9.0 | 11.0 | 0.00 | 0.00 | 0.00 | 44 | 1017.8 |
| 20260504181637 | 75 | 165 | 5.0 | 9.0 | 0.00 | 0.00 | 0.00 | 44 | 1017.7 |
| 20260504181135 | 75 | 187 | 6.0 | 9.0 | 0.00 | 0.00 | 0.00 | 44 | 1017.8 |
| 20260504180634 | 75 | 167 | 6.0 | 8.0 | 0.00 | 0.00 | 0.00 | 42 | 1017.8 |
| 20260504180132 | 76 | 111 | 2.0 | 2.0 | 0.00 | 0.00 | 0.00 | 44 | 1017.7 |
| 20260504175629 | 76 | 170 | 4.0 | 4.0 | 0.00 | 0.00 | 0.00 | 48 | 1017.9 |
| 20260504175125 | 76 | 192 | 3.0 | 4.0 | 0.00 | 0.00 | 0.00 | 46 | 1018.0 |
| 20260504174624 | 76 | 145 | 3.0 | 3.0 | 0.00 | 0.00 | 0.00 | 44 | 1018.0 |
| 20260504174120 | 75 | 190 | 4.0 | 4.0 | 0.00 | 0.00 | 0.00 | 45 | 1018.0 |
| 20260504173617 | 75 | 208 | 3.0 | 4.0 | 0.00 | 0.00 | 0.00 | 46 | 1018.2 |
| 20260504173114 | 75 | 161 | 9.0 | 11.0 | 0.00 | 0.00 | 0.00 | 46 | 1018.3 |
| 20260504172610 | 77 | 190 | 1.0 | 1.0 | 0.00 | 0.00 | 0.00 | 46 | 1018.0 |
| 20260504172108 | 76 | 189 | 2.0 | 3.0 | 0.00 | 0.00 | 0.00 | 47 | 1017.9 |
| 20260504171604 | 75 | 347 | 1.0 | 1.0 | 0.00 | 0.00 | 0.00 | 46 | 1018.0 |
| 20260504171101 | 75 | 132 | 2.0 | 3.0 | 0.00 | 0.00 | 0.00 | 46 | 1017.9 |
| 20260504170557 | 75 | 206 | 5.0 | 7.0 | 0.00 | 0.00 | 0.00 | 48 | 1018.0 |
| 20260504150941 | 70 | 149 | 5.0 | 7.0 | 0.00 | 0.00 | 0.00 | 58 | 1018.9 |
| 20260504150437 | 70 | 221 | 1.0 | 2.0 | 0.00 | 0.00 | 0.00 | 67 | 1019.1 |
| 20260504140904 | 65 | 177 | 3.0 | 3.0 | 0.00 | 0.00 | 0.00 | 81 | 1019.0 |
| 20260504140400 | 64 | 155 | 1.0 | 1.0 | 0.00 | 0.00 | 0.00 | 81 | 1018.9 |
| 20260504130325 | 54 | 54 | 0.0 | 0.0 | 0.00 | 0.00 | 0.00 | 99 | 1018.9 |
| 20260504120248 | 48 | 54 | 0.0 | 0.0 | 0.00 | 0.00 | 0.00 | 99 | 1018.7 |
| 20260504110716 | 47 | 54 | 0.0 | 0.0 | 0.00 | 0.00 | 0.00 | 99 | 1018.4 |
| 20260504110212 | 48 | 55 | 0.0 | 0.0 | 0.00 | 0.00 | 0.00 | 99 | 1018.5 |
| 20260504100130 | 48 | 54 | 0.0 | 0.0 | 0.00 | 0.00 | 0.00 | 99 | 1018.2 |
| 20260504081523 | 50 | 54 | 0.0 | 0.0 | 0.00 | 0.00 | 0.00 | 99 | 1018.6 |
| 20260504081019 | 50 | 54 | 0.0 | 0.0 | 0.00 | 0.00 | 0.00 | 99 | 1018.6 |
| 20260504080515 | 50 | 54 | 0.0 | 0.0 | 0.00 | 0.00 | 0.00 | 99 | 1018.6 |
| 20260504050328 | 52 | 75 | 0.0 | 0.0 | 0.00 | 0.00 | 0.00 | 99 | 1019.6 |
| 20260504045825 | 52 | 75 | 0.0 | 0.0 | 0.00 | 0.00 | 0.00 | 99 | 1019.7 |
| 20260504045320 | 52 | 75 | 0.0 | 0.0 | 0.00 | 0.00 | 0.00 | 99 | 1019.7 |
| 20260504044817 | 53 | 75 | 0.0 | 0.0 | 0.00 | 0.00 | 0.00 | 99 | 1019.6 |
| 20260504044315 | 53 | 75 | 0.0 | 0.0 | 0.00 | 0.00 | 0.00 | 99 | 1019.7 |
| 20260504043812 | 53 | 75 | 0.0 | 0.0 | 0.00 | 0.00 | 0.00 | 99 | 1019.9 |
| 20260504043309 | 53 | 75 | 0.0 | 0.0 | 0.00 | 0.00 | 0.00 | 99 | 1019.8 |
| 20260504042806 | 53 | 75 | 0.0 | 0.0 | 0.00 | 0.00 | 0.00 | 99 | 1019.9 |
| 20260504042304 | 53 | 75 | 0.0 | 0.0 | 0.00 | 0.00 | 0.00 | 99 | 1020.0 |
| 20260504041758 | 53 | 75 | 0.0 | 0.0 | 0.00 | 0.00 | 0.00 | 99 | 1019.9 |
| 20260504041255 | 53 | 75 | 0.0 | 0.0 | 0.00 | 0.00 | 0.00 | 99 | 1019.9 |
| 20260504040751 | 53 | 75 | 0.0 | 0.0 | 0.00 | 0.00 | 0.00 | 99 | 1020.0 |
| 20260504040249 | 53 | 75 | 0.0 | 0.0 | 0.00 | 0.00 | 0.00 | 99 | 1019.9 |
| 20260504035744 | 53 | 75 | 0.0 | 0.0 | 0.00 | 0.00 | 0.00 | 99 | 1020.0 |
| 20260504035242 | 53 | 75 | 0.0 | 0.0 | 0.00 | 0.00 | 0.00 | 99 | 1019.8 |
| 20260504034739 | 53 | 75 | 0.0 | 0.0 | 0.00 | 0.00 | 0.00 | 99 | 1019.9 |
| 20260504034237 | 53 | 75 | 0.0 | 0.0 | 0.00 | 0.00 | 0.00 | 99 | 1019.8 |
| 20260504033734 | 53 | 75 | 0.0 | 0.0 | 0.00 | 0.00 | 0.00 | 99 | 1020.0 |
| 20260504033231 | 54 | 75 | 0.0 | 0.0 | 0.00 | 0.00 | 0.00 | 98 | 1019.9 |
| 20260504032728 | 54 | 75 | 0.0 | 0.0 | 0.00 | 0.00 | 0.00 | 98 | 1020.0 |
| 20260504032225 | 54 | 75 | 0.0 | 0.0 | 0.00 | 0.00 | 0.00 | 98 | 1019.9 |
| 20260504031721 | 54 | 75 | 0.0 | 0.0 | 0.00 | 0.00 | 0.00 | 98 | 1020.0 |
| 20260504031220 | 54 | 75 | 0.0 | 0.0 | 0.00 | 0.00 | 0.00 | 98 | 1019.8 |
| 20260504030715 | 55 | 75 | 0.0 | 0.0 | 0.00 | 0.00 | 0.00 | 98 | 1019.7 |
| 20260504030213 | 55 | 75 | 0.0 | 0.0 | 0.00 | 0.00 | 0.00 | 97 | 1019.7 |
| 20260504025709 | 55 | 75 | 0.0 | 0.0 | 0.00 | 0.00 | 0.00 | 97 | 1019.8 |
| 20260504025205 | 55 | 75 | 0.0 | 0.0 | 0.00 | 0.00 | 0.00 | 97 | 1019.8 |
| 20260504024703 | 55 | 75 | 0.0 | 0.0 | 0.00 | 0.00 | 0.00 | 96 | 1019.8 |
| 20260504024159 | 55 | 75 | 0.0 | 0.0 | 0.00 | 0.00 | 0.00 | 96 | 1019.7 |
| 20260504023656 | 55 | 75 | 0.0 | 0.0 | 0.00 | 0.00 | 0.00 | 96 | 1019.7 |
| 20260504023152 | 56 | 75 | 0.0 | 0.0 | 0.00 | 0.00 | 0.00 | 95 | 1019.5 |
| 20260504022648 | 56 | 75 | 0.0 | 0.0 | 0.00 | 0.00 | 0.00 | 95 | 1019.6 |
| 20260504022144 | 56 | 75 | 0.0 | 0.0 | 0.00 | 0.00 | 0.00 | 94 | 1019.4 |
| 20260504021642 | 56 | 75 | 0.0 | 0.0 | 0.00 | 0.00 | 0.00 | 94 | 1019.3 |
| 20260504021139 | 57 | 75 | 0.0 | 0.0 | 0.00 | 0.00 | 0.00 | 94 | 1019.3 |
| 20260504020636 | 57 | 75 | 0.0 | 0.0 | 0.00 | 0.00 | 0.00 | 94 | 1019.5 |
| 20260504020132 | 57 | 75 | 0.0 | 0.0 | 0.00 | 0.00 | 0.00 | 93 | 1019.3 |
| 20260504015629 | 57 | 75 | 0.0 | 0.0 | 0.00 | 0.00 | 0.00 | 92 | 1019.2 |
| 20260504015125 | 57 | 75 | 0.0 | 0.0 | 0.00 | 0.00 | 0.00 | 92 | 1018.8 |
| 20260504014621 | 58 | 75 | 0.0 | 0.0 | 0.00 | 0.00 | 0.00 | 92 | 1019.0 |
| 20260504014118 | 58 | 75 | 0.0 | 0.0 | 0.00 | 0.00 | 0.00 | 91 | 1019.1 |
| 20260504013616 | 59 | 75 | 0.0 | 0.0 | 0.00 | 0.00 | 0.00 | 90 | 1018.9 |
| 20260504013112 | 59 | 75 | 0.0 | 0.0 | 0.00 | 0.00 | 0.00 | 90 | 1018.9 |
| 20260504012610 | 59 | 75 | 0.0 | 0.0 | 0.00 | 0.00 | 0.00 | 90 | 1018.8 |
| 20260504012108 | 60 | 75 | 0.0 | 0.0 | 0.00 | 0.00 | 0.00 | 89 | 1018.8 |
| 20260504011604 | 60 | 75 | 0.0 | 0.0 | 0.00 | 0.00 | 0.00 | 88 | 1018.7 |
| 20260504011100 | 60 | 74 | 0.0 | 0.0 | 0.00 | 0.00 | 0.00 | 86 | 1018.7 |
| 20260504010556 | 61 | 43 | 0.0 | 0.0 | 0.00 | 0.00 | 0.00 | 81 | 1018.6 |